Find Starlink 34648

NORAD ID: 65091 Int'l Des: 2025-167 Owner: SPXS Country: US Constellation: starlink operational
LEOCIRCULAR

当前视图

正在加载3D地球...

About Starlink 34648

Starlink 34648 (NORAD 65091) is a starlink constellation satellite (v2 mini) launched Aug 4, 2025 by SPXS of US. It operates in LEO, CIRCULAR orbit with a mass of 575.00 kg.

即将过境

Passes for default location (London). Set your location on the main map for personalized predictions.

高度历史

Loading altitude history...

两行轨道根数

1 65091U 25167P 26263.22182026 .00026750 00000-0 79904-3 0 9996
2 65091 53.1582 195.2570 0000599 92.4359 267.6712 15.34437803 63379
Epoch: Sep 20, 2026 • Age: 26 hours

当前状态

高度 473.1 km
远地点 / 近地点 N/A
速度 7.63 km/s
星下点 -33.22°S, 70.31°W
发射日期 Aug 4, 2025
运行时间 1.1 years
类型 internet

技术详情

分类 Payload
质量 575.00 kg
干质量 530.00 kg
长度 0.30 m
跨度 29.00 m
形状 ? Box + pan
制造商 SPXS
平台类型 Starlink V2MO
阶段状态 In Orbit
所有者/国家 SPXS/US

Most Searched